Other Surface Observations
Issued by NWS Tucson, AZ

Home | Current Version | Previous Version | Text Only | Print | Product List | Glossary On
Versions: 1 2 3 4 5 6 7 8 9 10 11 12 13 14 15 16 17 18 19 20 21 22 23 24 25 26 27 28 29 30 31 32 33 34 35 36 37 38 39 40 41 42 43 44 45 46 47 48 49 50
000
SXUS55 KTWC 241915
OSOTWC

WEATHER ROUNDUP FOR SOUTHEAST ARIZONA
NATIONAL WEATHER SERVICE TUCSON AZ
1215 PM MST SUN MAY 24 2015

AZZ504>506-514-242015-
LOCATION       SKY/WX    TMP DP  RH WIND       PRES   REMARKS
TUCSON         SUNNY     77  34  21 CALM      29.94F
DAVIS-MONTHAN  MOSUNNY   76  35  23 SW12      29.92F
CHILDRENS PARK N/A       74  35  24 W1                PIMA CO DEQ
ALVERNON/22ND  N/A      N/A N/A N/A N/A               PIMA CO DEQ
CHERRY/GLENN   N/A      N/A N/A N/A N/A               PIMA CO DEQ
TANGERINE      N/A       74 N/A N/A W2                PIMA CO DEQ
CONTL RANCH    N/A       76  37  24 N1                PIMA CO DEQ
GRANT/1ST      N/A       75  36  24 S2                PIMA CO DEQ
CRAYCROFT/22ND N/A      N/A N/A N/A N/A               PIMA CO DEQ
GOLFLINKS/KOLB N/A      N/A N/A N/A N/A               PIMA CO DEQ
AJO/12TH       N/A       75  37  25 S5                PIMA CO DEQ
SAGUARO EAST   N/A      N/A N/A N/A N/A               PIMA CO DEQ
FAIRGROUNDS    N/A       74 N/A N/A W5                PIMA CO DEQ
SAGUARO        N/A       78  35  21 SE4G11            *SABINO CYN
SAN CARLOS     N/A       76  37  24 SE6G12            *SAN CARLOS
GREEN VALLEY   N/A       75  34  22 SW4               PIMA CO DEQ
HORSE CAMP CYN N/A       69  31  24 W12G20            *ARAVAIPA CYN
RINCON MTNS    N/A       60  28  29 S3G10             *NR MANNING CAMP
$$

AZZ509>511-242015-
LOCATION       SKY/WX    TMP DP  RH WIND       PRES   REMARKS
SAFFORD        SUNNY     77  32  19 VRB7      29.93F
STRAY HORSE    N/A       54  27  35 W12G22            *
TRAIL CABIN    N/A       62  30  30 NW8G15            *N OF GRANVILLE
BLACK HILLS    N/A       76  32  20 W5G14             *N OF FT THOMAS
DRY LAKE       N/A       58  31  35 W5G13             *NATANES MTNS
NOON CREEK     N/A       69  34  27 E7G15             *PINALENO MTNS
COLUMBINE      N/A       48  20  32 S6G16             *PINALENO MTNS
GUTHRIE        N/A       61  28  28 SW11G21           *SW OF GUTHRIE
$$

AZZ502-503-513-242015-
LOCATION       SKY/WX    TMP DP  RH WIND       PRES   REMARKS
NOGALES        SUNNY     75  26  16 SW10      29.97F
SELLS          N/A       77  37  24 SW6G14            *
SASABE         N/A       74  33  22 SW10G22           *ALTAR VLY
HOPKINS        N/A       61  30  31 W8G14             *SANTA RITA MTNS
CARR CYN       N/A       70  20  15 S4G14             *W OF HEREFORD
$$

AZZ507-508-512-242015-
LOCATION       SKY/WX    TMP DP  RH WIND       PRES   REMARKS
SIERRA VISTA   MOSUNNY   72  23  15 W9        30.00S
DOUGLAS        SUNNY     75  22  13 W14G20    29.97F
EMPIRE MTNS    N/A       72  29  20 SW10G19           *LAS CIENEGAS NCA
MULESHOE RANCH N/A       71  32  24 W5G17             *PRESERVE
HEADQUARTERS   N/A       68  24  19 W9G19             *CHIRICAHUA MTNS
$$

.............................NOTES.............................
THIS IS AN AUTOMATED COLLECTIVE WITH MINIMAL QUALITY CONTROL.
PIMA CO DEQ SITES HAVE NONSTANDARD WIND SENSOR HEIGHTS.
PIMA CO DEQ SITES DO NOT REPORT WIND GUSTS.
* INDICATES WIND SENSORS LOCATED AT 20 FEET INSTEAD OF 33 FEET.
..............................KEY..............................
SKY/WX - SKY CONDITION/WEATHER
TMP    - TEMPERATURE IN FAHRENHEIT
DP     - DEWPOINT IN FAHRENHEIT
RH     - RELATIVE HUMIDITY IN PERCENT
WIND   - DIRECTION AND SPEED IN MILES PER HOUR (MPH)
VRB    - VARIABLE WIND DIRECTION
PRES   - MEAN SEA LEVEL PRESSURE IN INCHES OF MERCURY
         F - FALLING PRESSURE   R - RISING PRESSURE
         S - STEADY PRESSURE
VSB    - VISIBILITY IN MILES
HX     - HEAT INDEX IN FAHRENHEIT
WCI    - WIND CHILL INDEX IN FAHRENHEIT
N/A    - NOT AVAILABLE
AFB    - AIR FORCE BASE
         DAVIS-MONTHAN IS DAVIS-MONTHAN AIR FORCE BASE
CYN    - CANYON
MTNS   - MOUNTAINS
NCA    - NATIONAL CONSERVATION AREA
NR     - NEAR
VLY    - VALLEY
CONTL  - CONTINENTAL
PIMA CO DEQ - PIMA COUNTY DEPT OF ENVIRONMENTAL QUALITY



USA.gov is the U.S. government's official web portal to all federal, state and local government web resources and services.